Minot AFB, ND

9:23 PM CST on November 11, 2019 (GMT -0600)
Minot Air Force Base

Weather History for KMIB - September, 2019

Change the Weather History Date:

Thursday, September 5, 2019

  Actual Average Record
Temperature  
Mean Temperature 65 °F -  
Max Temperature 77 °F 74 °F 100 °F (2001)
Min Temperature 54 °F 49 °F 37 °F (2018)
Growing Degree Days 15 (Base 50)    
Moisture  
Dew Point 57 °F    
Average Humidity 83    
Maximum Humidity 100    
Minimum Humidity 51    
Precipitation  
Precipitation 0.00 in - - ()
Sea Level Pressure  
Sea Level Pressure 29.98 in    
Wind  
Wind Speed 11 mph (NW)    
Max Wind Speed 17 mph    
Max Gust Speed -    
Visibility 10 miles    
Events      
Averages and records for this station are not official NWS values.
T = Trace of Precipitation, MM = Missing Value Source: NWS Daily Summary

Daily Weather History Graph

Daily Weather History Graph

Search for Another Location

Airport or City:

Astronomy

Sep. 05, 2019 Rise Set
Actual Time 7:08 AM CDT 8:19 PM CDT
Civil Twilight 6:36 AM CDT 8:51 PM CDT
Nautical Twilight 5:57 AM CDT 9:29 PM CDT
Astronomical Twilight 5:15 AM CDT 10:11 PM CDT
Moon 2:50 PM CDT (9/5) No Moon Set
Length of Visible Light 14h 15m
Length of Day
13h 10m
Waxing Crescent, 45% of the Moon is Illuminated
Sep 5
Waxing Crescent
Sep 5
First Quarter
Sep 13
Full
Sep 21
Last Quarter
Sep 28
New

Hourly Weather History & Observations

Time (CDT) Temp. Dew Point Humidity Pressure Visibility Wind Dir Wind Speed Gust Speed Precip Events Conditions
12:56 AM 58.3 °F 56.5 °F 94% 29.77 in 10.0 mi South 6.9 mph - N/A   Clear
1:56 AM 64.4 °F 59.2 °F 83% 29.77 in 10.0 mi WSW 11.5 mph - N/A   Clear
2:56 AM 63.5 °F 55.0 °F 74% 29.79 in 10.0 mi WNW 17.3 mph - N/A   Clear
3:56 AM 60.8 °F 56.7 °F 86% 29.81 in 10.0 mi NW 16.1 mph - N/A   Clear
4:56 AM 57.2 °F 55.2 °F 93% 29.84 in 10.0 mi NW 13.8 mph - N/A   Clear
5:56 AM 55.4 °F 54.3 °F 96% 29.87 in 10.0 mi WNW 10.4 mph - N/A   Clear
6:56 AM 54.7 °F 53.6 °F 96% 29.91 in 10.0 mi WNW 11.5 mph - N/A   Clear
7:36 AM 55.4 °F 55.4 °F 100% 29.93 in 10.0 mi NW 12.7 mph - N/A   Mostly Cloudy
7:51 AM 57.2 °F 55.4 °F 94% 29.94 in 10.0 mi NW 12.7 mph - N/A   Overcast
7:56 AM 56.7 °F 55.6 °F 96% 29.94 in 10.0 mi NW 13.8 mph - N/A   Overcast
8:01 AM 57.2 °F 55.4 °F 94% 29.94 in 10.0 mi NW 12.7 mph - N/A   Overcast
8:31 AM 57.2 °F 57.2 °F 100% 29.96 in 10.0 mi NNW 13.8 mph - N/A   Overcast
8:46 AM 57.2 °F 57.2 °F 100% 29.96 in 8.0 mi NNW 12.7 mph - N/A   Overcast
8:56 AM 57.7 °F 56.7 °F 96% 29.96 in 8.0 mi NNW 11.5 mph - N/A   Overcast
9:16 AM 59.0 °F 57.2 °F 94% 29.98 in 10.0 mi NW 11.5 mph - N/A   Overcast
9:36 AM 60.8 °F 59.0 °F 94% 29.99 in 10.0 mi NNW 11.5 mph - N/A   Overcast
9:46 AM 60.8 °F 57.2 °F 88% 29.99 in 10.0 mi NNW 11.5 mph - N/A   Overcast
9:56 AM 60.8 °F 57.9 °F 90% 30.00 in 10.0 mi NNW 10.4 mph - N/A   Overcast
10:16 AM 60.8 °F 57.2 °F 88% 30.01 in 10.0 mi NW 11.5 mph - N/A   Overcast
10:46 AM 62.6 °F 57.2 °F 82% 30.01 in 10.0 mi NNW 12.7 mph - N/A   Overcast
10:56 AM 63.0 °F 58.1 °F 84% 30.01 in 10.0 mi NNW 12.7 mph - N/A   Overcast
11:56 AM 64.8 °F 57.7 °F 78% 30.03 in 10.0 mi NNW 15.0 mph - N/A   Overcast
12:01 PM 64.4 °F 57.2 °F 77% 30.04 in 10.0 mi NNW 13.8 mph - N/A   Overcast
1:56 PM 71.4 °F 58.6 °F 64% 30.04 in 10.0 mi NNW 5.8 mph - N/A   Partly Cloudy
2:56 PM 73.9 °F 58.3 °F 58% 30.04 in 10.0 mi North 8.1 mph - N/A   Clear
3:56 PM 75.4 °F 57.6 °F 54% 30.05 in 10.0 mi WNW 6.9 mph - N/A   Clear
4:56 PM 76.6 °F 58.3 °F 53% 30.06 in 8.0 mi NNW 8.1 mph - N/A   Clear
5:56 PM 76.5 °F 57.0 °F 51% 30.06 in 10.0 mi NW 9.2 mph - N/A   Clear
6:56 PM 76.5 °F 57.0 °F 51% 30.07 in 10.0 mi NW 9.2 mph - N/A   Clear
7:56 PM 71.1 °F 58.6 °F 65% 30.08 in 10.0 mi West 4.6 mph - N/A   Clear
8:56 PM 64.2 °F 57.6 °F 79% 30.10 in 10.0 mi WNW 6.9 mph - N/A   Clear
9:56 PM 60.4 °F 56.3 °F 86% 30.11 in 10.0 mi WNW 8.1 mph - N/A   Clear
10:56 PM 60.4 °F 55.6 °F 84% 30.12 in 10.0 mi West 8.1 mph - N/A   Clear
11:56 PM 59.2 °F 55.6 °F 88% 30.13 in 10.0 mi West 9.2 mph - N/A   Clear